User: anonymous   Login
Location: Unspecified
(0.0000°N, 0.0000°E)
Time: 08:44:16
(UTC+00:00)
Language:

NAVSTAR 64 (USA 206) - Orbit

View from above orbital plane
View from above orbital plane
View from above satellite
View from above satellite

Ground track
Ground track

The orbit data is extracted from the following two-line orbital elements,

1 35752U 09043A   14297.07548329  .00000023  00000-0  00000+0 0  9409
2 35752 054.2521 198.7251 0038561 018.2592 235.1116 02.00558788 38032
Epoch (UTC): 24 October 2014 01:48:41
Eccentricity: 0.0038561
inclination: 54.2521°
perigee height: 20080 km
apogee height: 20285 km
right ascension of ascending node: 198.7251°
argument of perigee: 18.2592°
revolutions per day: 2.00558788
mean anomaly at epoch: 235.1116°
orbit number at epoch: 3803

The dashed part of the orbit path shows where the satellite is in the earth's shadow,  

DLR